Overview Statistics Trail Chart Weather Telemetry Raw packets
 

This is the latest recevied weather packets stored in our database for station/object W5CMS-13. If no packets are shown the sender has not sent any weather packets the latest 10 day(s).

<< 1 2 3 4 >>
Time Temp. Humidity Pressure Rain* Wind** Luminosity Snow
1788620416 30.56° C 71% 1014 hPa 0 mm - - -
1788619816 30° C 71% 1014 hPa 0 mm - - -
1788619217 30° C 72% 1014 hPa 0 mm - - -
1788618617 30° C 72% 1014.1 hPa 0 mm - - -
1788618017 29.44° C 74% 1014 hPa 0 mm - - -
1788617417 29.44° C 74% 1013.9 hPa 0 mm - - -
1788616816 29.44° C 75% 1013.9 hPa 0 mm - - -
1788616216 28.89° C 76% 1013.9 hPa 0 mm - - -
1788615616 28.33° C 76% 1013.8 hPa 0 mm - - -
1788615017 28.33° C 77% 1013.7 hPa 0 mm - - -
1788614417 27.78° C 78% 1013.6 hPa 0 mm - - -
1788613817 27.78° C 79% 1013.5 hPa 0 mm - - -
1788613218 27.78° C 79% 1013.6 hPa 0 mm - - -
1788612617 27.22° C 80% 1013.4 hPa 0 mm - - -
1788612018 26.67° C 81% 1013.2 hPa 0 mm - - -
1788611417 26.67° C 81% 1013.1 hPa 0 mm - - -
1788610824 26.67° C 81% 1012.9 hPa 0 mm - - -
1788610216 26.67° C 81% 1012.9 hPa 0 mm - - -
1788609617 26.67° C 81% 1013 hPa 0 mm - - -
1788609017 26.67° C 81% 1013 hPa 0 mm - - -
1788608416 26.67° C 80% 1013 hPa 0 mm - - -
1788607816 27.22° C 79% 1013 hPa 0 mm - - -
1788607217 27.22° C 78% 1013 hPa 0 mm - - -
1788606617 27.22° C 78% 1013.1 hPa 0 mm - - -
1788606017 27.22° C 78% 1013.1 hPa 0 mm - - -

* Rain latest hour (hover to see other rain measurements)
** Current wind speed in m/s (hover to see current wind gust speed)